Other Public Products
Issued by NWS Grand Forks, ND

Home | Current Version | Previous Version | Graphics & Text | Print | Product List | Glossary On
Versions: 1 2 3 4 5 6 7 8 9 10 11 12 13 14 15 16 17 18 19 20 21 22 23 24 25 26 27 28 29 30 31 32 33 34 35 36 37 38 39 40 41 42 43 44 45 46 47 48 49 50
000
FPUS83 KFGF 271931
OPUFGF
PRAIRIE TO PINES WEATHER ROUNDUP
NATIONAL WEATHER SERVICE EASTERN NORTH DAKOTA/GRAND FORKS ND
100 PM CST TUE JAN 27 2015

 **SATELLITE DATA USED TO AUGMENT SKY COVER AT AUTOMATED STATIONS**
 *****  WEATHER ACROSS EASTERN NORTH DAKOTA  *****

CITY           SKY/WX    TMP DP  RH WIND       PRES   REMARKS
GRAND FORKS    CLOUDY    30  28  92 S16G22    30.00F FOG     WCI  19
GRAND FORKS AF CLOUDY    30  28  94 S13       29.99F FOG     WCI  20
GRAND CITY NWS NOT AVBL
BUXTON           N/A     30  30  99 S12         N/A  WCI  20
DEVILS LAKE    MOSUNNY   36  30  80 S17       29.88F
FARGO          CLOUDY    31  29  92 SE17G24   30.03F WCI  19
WAHPETON ARPT  CLOUDY    30  30 100 S13G22    30.05F WCI  20
$$

 *****  WEATHER ACROSS CENTRAL AND WESTERN NORTH DAKOTA  *****

CITY           SKY/WX    TMP DP  RH WIND       PRES   REMARKS
JAMESTOWN      SUNNY     39  34  82 S17G24    29.90F
BISMARCK       MOSUNNY   47  32  56 SW10      29.87F
MINOT          PTSUNNY   44  34  67 SW7       29.80F
MINOT AFB      PTSUNNY   42  41  96 S3        29.80F
GARRISON         N/A     42  36  79 S7        29.81F
WILLISTON      PTSUNNY   46  34  62 S5        29.83F
DICKINSON      SUNNY     60  36  40 W9        29.83F
HETTINGER      SUNNY     57  36  45 W10       29.88F
$$

 *****  OTHER OBSERVATIONS NORTHEAST NORTH DAKOTA  *****

CITY           SKY/WX    TMP DP  RH WIND       PRES   REMARKS
WALHALLA         N/A     36  36 100 SE13G22   29.91F
LANGDON        FAIR      36  32  87 S20       29.87F
CAVALIER       CLOUDY    30  30 100 S15       29.93F FOG     WCI  19
GRAFTON        NOT AVBL
CANDO          FAIR      36  32  87 S15G23    29.87F
FORT TOTTEN    NOT AVBL
ROLLA          FAIR      34  34 100 S17       29.83F WCI  23
RUGBY          FAIR      36  32  87 S10       29.84F
 ***** THE ABOVE OBSERVATIONS ARE NON NWS ARE NOT QUALITY
        CONTROLLED AND MAY MIS-REPORT RAIN FOR SNOW...
$$

 *****  OTHER OBSERVATIONS SOUTHEAST NORTH DAKOTA *****

CITY           SKY/WX    TMP DP  RH WIND       PRES   REMARKS
COOPERSTOWN    NOT AVBL
VALLEY CITY    CLOUDY    30  30 100 SE15      29.95F FOG     WCI  19
OAKES            N/A     37  37 100 SE9       29.96F
GWINNER        CLOUDY    32  32 100 SE13      30.00F VSB 1/4 WCI  22
BUFFALO        NOT AVBL
WYNDMERE         N/A     30  32 100 SE9         N/A  WCI  22
 ***** THE ABOVE OBSERVATIONS ARE NON NWS ARE NOT QUALITY
       CONTROLLED AND MAY MIS-REPORT RAIN FOR SNOW...
$$

  *****  WEATHER ACROSS NORTHERN MINNESOTA  *****

CITY           SKY/WX    TMP DP  RH WIND       PRES   REMARKS
FLAG ISLAND    CLOUDY    25  23  93 S15       30.02S WCI  12
WARROAD        CLOUDY    28  25  86 S6        30.02F WCI  22
ROSEAU         CLOUDY    28  25  86 S8        30.00F WCI  20
HALLOCK        CLOUDY    30  28  93 S13       29.97F WCI  20
THF RVR FALLS  CLOUDY    28  27  93 S9        30.01F WCI  20
HALSTAD          N/A     31  28  88 S17         N/A  WCI  20
FOSSTON        MOSUNNY   32  27  80 SE9       30.02F WCI  24
BAUDETTE       PTSUNNY   29  24  82 S6        30.02F WCI  23
WASKISH        PTSUNNY   34  27  75 SE6       30.03F
CROOKSTON      CLOUDY    30  28  93 S14       30.02F WCI  20
$$
  *****  WEATHER ACROSS CENTRAL AND WEST MINNESOTA  *****

CITY           SKY/WX    TMP DP  RH WIND       PRES   REMARKS
BEMIDJI        PTSUNNY   32  27  80 S10       30.04F WCI  24
PARK RAPIDS    CLOUDY    32  27  81 S10       30.06F WCI  24
WADENA         CLOUDY    30  27  86 S12         N/A  WCI  21
DETROIT LAKES  CLOUDY    30  30 100 SE15      30.04F WCI  19
MOORHEAD       CLOUDY    30  30 100 S16       30.04F WCI  19
FERGUS FALLS   CLOUDY    30  30 100 S16       30.09F WCI  19
ELBOW LAKE     CLOUDY    31  30  97 S16       30.06F WCI  19
MORRIS MN      CLOUDY    30  30 100 SE15      30.07F FOG     WCI  19
STAPLES        CLOUDY    30  27  86 S9        30.09F WCI  22
WHEATON        CLOUDY    28  28 100 SE16      30.07F FOG     WCI  17
$$
  *****  WEATHER ELSEWHERE ACROSS MINNESOTA  *****

CITY           SKY/WX    TMP DP  RH WIND       PRES   REMARKS
DULUTH         CLOUDY    28  21  75 SW8       30.12F WCI  20
INTRNTL FALLS  CLOUDY    28  23  81 SE7       30.07F WCI  21
ELY            CLOUDY    27  21  80 SW8       30.10F WCI  18
CLOQUET        CLOUDY    28  21  74 SW3       30.13F
BRAINERD       CLOUDY    32  26  78 S10       30.11F WCI  24
HIBBING        CLOUDY    29  22  75 S6        30.11F WCI  23
ALEXANDRIA     CLOUDY    31  28  89 SE10      30.08F WCI  22
SAINT CLOUD    CLOUDY    33  26  75 S9        30.14S
MINNEAPOLIS    CLOUDY    33  24  69 SE8       30.17S
$$

  *****  WEATHER ACROSS SOUTH DAKOTA  *****

CITY           SKY/WX    TMP DP  RH WIND       PRES   REMARKS
SIOUX FALLS    CLOUDY    33  31  92 SE12      30.06F WCI  24
BROOKINGS      NOT AVBL
WATERTOWN      SUNNY     36  31  82 S15       30.01F
HURON          SUNNY     44  35  70 SE15G23   29.97F
SISSETON         N/A     30  30 100 S16       30.03F WCI  19
ABERDEEN       SUNNY     42  35  76 S17       29.97F
MITCHELL       SUNNY     46  37  71 SE15      29.99F
PIERRE         SUNNY     51  34  52 S3        29.91F
MOBRIDGE       SUNNY     47  36  65 S8        29.87F
RAPID CITY     NOT AVBL
$$

  *****  SOME WEATHER IN NEARBY STATES *****

CITY           SKY/WX    TMP DP  RH WIND       PRES   REMARKS
GLASGOW MT     PTSUNNY   42  36  79 CALM      29.85F
GREAT FALLS MT PTSUNNY   64  25  22 SW21      29.89F
CHEYENNE WY    SUNNY     66  19  16 W16G23    30.13F
SCOTTSBLUFF NE   N/A    N/A N/A N/A MISG      30.04F
OMAHA NE       MOSUNNY   48  34  58 SE13      30.09F
DES MOINES IA  MOSUNNY   43  30  60 E6        30.15F
DAVENPORT IA   CLOUDY    28  21  75 NE8       30.19F WCI  20
CHICAGO IL     MOSUNNY   31  18  58 NE8       30.16S WCI  23
EAU CLAIRE WI  CLOUDY    30  19  63 CALM      30.20R
LA CROSSE WI   CLOUDY    31  20  63 CALM      30.20F
$$

  *****  SOME NATIONAL WEATHER *****

CITY           SKY/WX    TMP DP  RH WIND       PRES   REMARKS
LA GUARDIA NY  CLOUDY    26  17  68 NW17G23   29.66S WCI  13
RALEIGH NC     MOSUNNY   41  19  41 VRB6      29.80F
ATLANTA GA     PTSUNNY   47  30  51 NW20G25   29.96R
NEW ORLEANS LA SUNNY     67  40  37 N5        30.10F
OKLAHOMA CITY  MOSUNNY   74  35  24 S7        30.13F
ALBUQUERQUE NM PTSUNNY   50  27  40 S5        30.35F
SALT LAKE CITY CLOUDY    51  35  54 SE14      30.20F
LOS ANGELES CA MOSUNNY   67  55  65 CALM      30.19F
BOISE ID       CLOUDY    32  30  93 CALM      30.12F FOG
SEATTLE WA     FOG       50  48  93 S9        30.09S VSB 1
$$

*** WEATHER ACROSS MANITOBA...SASKATCHEWAN AND ONTARIO ***
                ***ONTARIO***

CITY           SKY/WX    TMP DP  RH WIND       PRES   REMARKS
GERALDTON      FLURRIES  25  19  80 SW10      30.12S WCI  15
THUNDER BAY    CLOUDY    27  23  86 CALM      30.17S
SIOUX LOOKOUT  CLOUDY    21  18  86 SW7       30.04F WCI  13
TORONTO        PTSUNNY   19   5  53 N13       30.05F WCI   7
BIG TROUT LK   LGT SNOW  25  21  86 SW10      29.86S WCI  15
PICKLE LAKE    CLOUDY    21  18  86 S9        29.99F WCI  11
DRYDEN         CLOUDY    21  19  93 S9        30.04F WCI  11
KENORA         CLOUDY    23  21  93 S8        30.01F WCI  14
$$
                *** MANITOBA***

CITY           SKY/WX    TMP DP  RH WIND       PRES   REMARKS
BRANDON        CLOUDY    36  30  80 E5        29.84F
DAUPHIN        PTSUNNY   32  30  93 CALM      29.86S
ISLAND LAKE    FLURRIES  27  25  93 W9        29.88R WCI  17
PILOT MOUND      N/A     34  30  86 S17         N/A  WCI  23
THE PAS        CLOUDY    25  25 100 N7        29.94S WCI  17
THOMPSON       FLURRIES  10   5  79 NW9       29.96S WCI  -2
WINNIPEG       FRZ RAIN  27  27 100 S18       29.95F WCI  13
LYNN LAKE      SUNNY      1  -6  71 NW14      30.01R WCI -17
CHURCHILL      MOSUNNY   -2  -9  71 NW33G40   29.88R BLWGSNOWWCI -30
GILLAM         FLURRIES  12   5  73 N14       29.91R WCI  -3
$$
                ***SASKATCHEWAN***

CITY           SKY/WX    TMP DP  RH WIND       PRES   REMARKS
ESTEVAN        CLOUDY    41  36  81 SW7       29.78F
KINDERSLEY     CLOUDY    34  28  80 E5        29.78S
LLOYDMINSTER   CLOUDY    34  32  93 E10       29.82S
PRINCE ALBERT  PTSUNNY   34  28  80 NE16      29.90R WCI  23
REGINA         CLOUDY    34  28  80 N2        29.79R
YORKTON        SUNNY     32  30  93 E3        29.83S


USA.gov is the U.S. government's official web portal to all federal, state and local government web resources and services.